Regional Weather Roundup
Issued by NWS Green Bay, WI

Home | Current Version | Previous Version | Graphics & Text | Print | Product List | Glossary Off
Versions: 1 2 3 4 5 6 7 8 9 10 11 12 13 14 15 16 17 18 19 20 21 22 23 24 25 26 27 28 29 30 31 32 33 34 35 36 37 38 39 40 41 42 43 44 45 46 47 48 49 50

000
ASUS43 KGRB 220810
RWRGRB

NORTH-CENTRAL AND NORTHEAST WISCONSIN REGIONAL WEATHER ROUNDUP
NATIONAL WEATHER SERVICE GREEN BAY WI
200 AM CST MON DEC 22 2014

WIZ005-009-010>012-018-019-220900-
NORTH CENTRAL WISCONSIN

CITY           SKY/WX    TMP DP  RH WIND       PRES   REMARKS
IRONWOOD       CLOUDY    34  32  93 E3        29.75S
MANITOWISH WTR LGT SNOW  32  32 100 S10G16    29.79S
ARBOR VITAE    CLOUDY    34  32  94 S14       29.81S FOG
EAGLE RIVER    CLOUDY    32  32 100 S9        29.82S FOG
LAND O LAKES   CLOUDY    33  32  96 S10       29.83S
RHINELANDER    CLOUDY    32  31  96 S8        29.83F FOG
PHILLIPS       CLOUDY    33  32  98 S14       29.79S FOG
ANTIGO         LGT SNOW  31  31  99 S10       29.87S
TOMAHAWK       CLOUDY    32  31  98 S3        29.83F FOG
MERRILL        CLOUDY    33  33 100 S7        29.86R FOG
$$

WIZ013-073-220900-
NORTHEAST WISCONSIN

CITY           SKY/WX    TMP DP  RH WIND       PRES   REMARKS
IRON MOUNTAIN  CLOUDY    33  30  88 S12       29.89S FOG
MARINETTE      CLOUDY    36  30  80 S9G16     29.95S
OCONTO         CLOUDY    35  32  87 S7        29.96R
$$

WIZ017-030-035>037-045-220900-
CENTRAL WISCONSIN

CITY           SKY/WX    TMP DP  RH WIND       PRES   REMARKS
MEDFORD        LGT SNOW  32  32  99 SE12      29.82S
WAUSAU         LGT SNOW  33  31  92 SE10      29.86S FOG
MOSINEE        LGT SNOW  32  32 100 SE10      29.87S
MARSHFIELD     LGT SNOW  34  32  92 S10       29.84S FOG
WISC RAPIDS    CLOUDY    35  30  82 S8        29.88F
STEVENS POINT  DRIZZLE   32  30  92 S8        29.88S
WAUPACA        CLOUDY    36  31  81 SE8       29.92S
SHAWANO        CLOUDY    37  31  81 S8        29.93F
CLINTONVILLE   CLOUDY    34  30  86 S10       29.92S
$$

WIZ038-039-048-051-220900-
FOX VALLEY

CITY           SKY/WX    TMP DP  RH WIND       PRES   REMARKS
NWS GREEN BAY  CLOUDY    35  31  85 S10       29.95S
APPLETON       CLOUDY    34  30  86 S10       29.94R
OSHKOSH        CLOUDY    35  29  78 S13       29.93F
FOND DU LAC    CLOUDY    35  29  78 S13       29.94F
$$

WIZ022-050-052-220900-
EAST CENTRAL WISCONSIN

CITY           SKY/WX    TMP DP  RH WIND       PRES   REMARKS
STURGEON BAY   CLOUDY    36  30  80 S14       29.98S
MANITOWOC      CLOUDY    37  33  85 S14       29.98S
SHEBOYGAN      CLOUDY    35  30  82 S10G18    29.97F
$$

LMZ563-521-522-541>543-220900-
LAKESHORE

STATION/POSITION TIME  TEMP    WIND        PRES    VSBY  WAVE
                       AIR SEA DIR/SP/G                  HT/PER
                 (UTC) (F)     (DEG/KT/KT) (MB)    (MI)  (FT/S)
SHEBOYGAN LKSHOR 0800   37 36  180/ 19/ 21 1015.7S
KEWAUNEE LKSHORE 0800   36     190/ 13/ 17 1014.4R
ALGOMA MARINA    0800          230/ 23/ 26   N/A
NORTHPORT PIER   0800   36     150/ 11/ 17 1015.2S
SISTER BAY LKSHO 0800          190/ 19/ 23   N/A
CHAMBERS ISLAND  0800   37     170/  7/ 11 1015.2R
MENOMINEE LKSHOR 0800   36     160/ 11/ 14 1015.1S
$$


USA.gov is the U.S. government's official web portal to all federal, state and local government web resources and services.